TimeCDT,TemperatureF,Dew PointF,Humidity,Sea Level PressureIn,VisibilityMPH,Wind Direction,Wind SpeedMPH,Gust SpeedMPH,PrecipitationIn,Events,Conditions,WindDirDegrees,DateUTC
12:12 AM,77.2,59.7,55,29.88,10.0,South,17.3,27.6,N/A,,Scattered Clouds,180,2011-10-08 05:12:00
12:33 AM,77.2,60.1,55,29.89,10.0,South,16.1,32.2,N/A,,Clear,180,2011-10-08 05:33:00
12:52 AM,77.2,60.4,56,29.89,10.0,South,17.3,25.3,N/A,,Clear,180,2011-10-08 05:52:00
1:13 AM,76.1,59.9,57,29.89,10.0,South,17.3,26.5,N/A,,Clear,180,2011-10-08 06:13:00
1:32 AM,75.9,59.9,57,29.90,10.0,South,13.8,27.6,N/A,,Scattered Clouds,190,2011-10-08 06:32:00
1:53 AM,75.7,59.4,57,29.91,10.0,South,15.0,24.2,N/A,,Mostly Cloudy,180,2011-10-08 06:53:00
2:13 AM,74.7,59.0,58,29.91,10.0,South,16.1,28.8,N/A,,Scattered Clouds,180,2011-10-08 07:13:00
2:33 AM,74.7,59.0,58,29.92,10.0,South,13.8,23.0,N/A,,Clear,190,2011-10-08 07:33:00
2:52 AM,74.7,59.5,59,29.93,10.0,South,11.5,19.6,N/A,,Scattered Clouds,180,2011-10-08 07:52:00
3:32 AM,74.7,60.1,60,29.93,10.0,South,8.1,16.1,N/A,,Clear,190,2011-10-08 08:32:00
3:53 AM,72.1,58.3,62,29.93,10.0,South,9.2,-,N/A,,Clear,180,2011-10-08 08:53:00
4:13 AM,72.1,58.6,62,29.93,10.0,South,8.1,-,N/A,,Clear,180,2011-10-08 09:13:00
4:33 AM,72.1,58.1,61,29.94,10.0,South,9.2,-,N/A,,Clear,180,2011-10-08 09:33:00
4:53 AM,70.7,57.2,62,29.95,10.0,South,8.1,-,N/A,,Clear,180,2011-10-08 09:53:00
5:33 AM,69.8,56.7,63,29.97,10.0,South,8.1,-,N/A,,Clear,180,2011-10-08 10:33:00
5:53 AM,69.8,57.2,64,29.98,10.0,South,6.9,-,N/A,,Clear,180,2011-10-08 10:53:00
6:13 AM,69.8,57.2,64,29.97,10.0,South,5.8,-,N/A,,Scattered Clouds,170,2011-10-08 11:13:00
6:33 AM,69.8,57.4,65,29.98,10.0,South,5.8,-,N/A,,Mostly Cloudy,170,2011-10-08 11:33:00
6:52 AM,69.8,57.2,64,29.99,10.0,South,4.6,-,N/A,,Overcast,170,2011-10-08 11:52:00
7:13 AM,69.8,56.8,63,30.00,10.0,South,8.1,-,N/A,,Mostly Cloudy,170,2011-10-08 12:13:00
7:33 AM,69.8,56.5,63,29.99,10.0,South,9.2,16.1,N/A,,Mostly Cloudy,180,2011-10-08 12:33:00
7:53 AM,69.8,56.1,62,30.02,10.0,South,11.5,-,N/A,,Scattered Clouds,180,2011-10-08 12:53:00
8:12 AM,69.8,57.9,66,30.02,10.0,South,6.9,-,N/A,Rain,Light Rain,180,2011-10-08 13:12:00
8:33 AM,69.8,58.1,66,30.02,10.0,Calm,Calm,-,N/A,,Scattered Clouds,0,2011-10-08 13:33:00
8:53 AM,68.7,59.4,72,30.02,10.0,South,5.8,-,N/A,,Mostly Cloudy,170,2011-10-08 13:53:00
9:13 AM,69.8,59.7,70,30.02,10.0,South,8.1,-,N/A,,Mostly Cloudy,180,2011-10-08 14:13:00
9:33 AM,69.8,58.8,68,30.02,10.0,SSE,5.8,-,N/A,,Scattered Clouds,160,2011-10-08 14:33:00
9:53 AM,72.1,57.9,61,30.03,10.0,South,11.5,16.1,N/A,,Scattered Clouds,170,2011-10-08 14:53:00
10:12 AM,74.7,57.9,56,30.03,10.0,SSE,10.4,-,N/A,,Scattered Clouds,160,2011-10-08 15:12:00
10:33 AM,74.7,56.3,53,30.03,10.0,South,13.8,-,N/A,,Clear,170,2011-10-08 15:33:00
11:13 AM,74.7,54.0,48,30.03,10.0,South,11.5,-,N/A,,Clear,170,2011-10-08 16:13:00
11:32 AM,76.3,54.7,47,30.03,10.0,South,11.5,17.3,N/A,,Clear,180,2011-10-08 16:32:00
11:53 AM,77.2,54.0,44,30.03,10.0,South,13.8,20.7,N/A,,Scattered Clouds,170,2011-10-08 16:53:00
12:13 PM,76.5,53.6,45,30.03,10.0,SSW,12.7,19.6,N/A,,Mostly Cloudy,200,2011-10-08 17:13:00
12:33 PM,77.2,54.0,44,30.03,10.0,South,10.4,-,N/A,,Mostly Cloudy,170,2011-10-08 17:33:00
12:53 PM,77.2,53.4,44,30.03,5.0,SSW,12.7,17.3,N/A,,Haze,200,2011-10-08 17:53:00
1:12 PM,77.9,53.4,43,30.04,10.0,SSW,10.4,16.1,N/A,,Mostly Cloudy,210,2011-10-08 18:12:00
1:33 PM,77.2,52.9,43,30.04,10.0,SSW,10.4,17.3,N/A,,Mostly Cloudy,210,2011-10-08 18:33:00
2:13 PM,80.6,54.1,40,30.03,10.0,SW,9.2,16.1,N/A,,Scattered Clouds,220,2011-10-08 19:13:00
2:32 PM,81.0,53.6,39,30.01,10.0,South,9.2,17.3,N/A,,Scattered Clouds,190,2011-10-08 19:32:00
2:53 PM,81.0,53.6,39,30.01,10.0,SW,8.1,18.4,N/A,,Clear,220,2011-10-08 19:53:00
3:13 PM,82.2,54.0,38,30.01,7.0,SW,10.4,-,N/A,,Clear,220,2011-10-08 20:13:00
3:33 PM,82.4,54.7,38,30.02,7.0,South,9.2,16.1,N/A,,Clear,190,2011-10-08 20:33:00
3:53 PM,80.6,55.0,41,30.01,10.0,South,9.2,16.1,N/A,,Scattered Clouds,190,2011-10-08 20:53:00
4:13 PM,82.2,55.8,40,30.01,10.0,South,8.1,-,N/A,,Clear,190,2011-10-08 21:13:00
4:33 PM,80.4,54.5,41,30.01,10.0,SW,6.9,-,N/A,,Clear,220,2011-10-08 21:33:00
4:53 PM,80.4,55.0,42,30.02,10.0,SSW,10.4,-,N/A,,Clear,210,2011-10-08 21:53:00
5:13 PM,79.7,55.6,43,30.02,10.0,SW,4.6,-,N/A,,Clear,220,2011-10-08 22:13:00
5:33 PM,77.2,55.2,47,30.02,10.0,WSW,6.9,-,N/A,,Scattered Clouds,240,2011-10-08 22:33:00
5:52 PM,77.2,56.3,48,30.03,10.0,SW,6.9,-,N/A,,Scattered Clouds,220,2011-10-08 22:52:00
6:13 PM,77.2,56.7,49,30.04,10.0,SSW,5.8,-,N/A,,Scattered Clouds,200,2011-10-08 23:13:00
6:33 PM,76.1,57.2,52,30.04,10.0,SSW,5.8,-,N/A,,Scattered Clouds,200,2011-10-08 23:33:00
6:53 PM,74.7,56.5,53,30.05,10.0,SSW,4.6,-,N/A,,Scattered Clouds,200,2011-10-08 23:53:00
7:33 PM,74.7,58.1,56,30.07,10.0,West,4.6,-,N/A,,Overcast,260,2011-10-09 00:33:00
7:53 PM,74.7,61.9,64,30.08,10.0,WNW,8.1,-,N/A,,Overcast,290,2011-10-09 00:53:00
8:13 PM,71.6,60.8,69,30.08,10.0,NW,8.1,-,N/A,,Overcast,310,2011-10-09 01:13:00
8:33 PM,69.8,59.9,71,30.09,10.0,NW,5.8,-,N/A,,Mostly Cloudy,320,2011-10-09 01:33:00
8:53 PM,69.8,61.0,73,30.10,10.0,NNW,5.8,-,N/A,,Mostly Cloudy,340,2011-10-09 01:53:00
9:13 PM,69.8,61.3,74,30.10,10.0,North,8.1,-,N/A,,Overcast,350,2011-10-09 02:13:00
9:33 PM,69.8,62.1,76,30.11,10.0,North,5.8,-,N/A,,Mostly Cloudy,350,2011-10-09 02:33:00
9:53 PM,69.8,62.4,77,30.11,10.0,North,6.9,-,N/A,,Overcast,350,2011-10-09 02:53:00
10:13 PM,69.8,62.6,78,30.11,10.0,Calm,Calm,-,N/A,,Overcast,0,2011-10-09 03:13:00
10:32 PM,69.8,62.6,78,30.12,10.0,Calm,Calm,-,N/A,,Overcast,0,2011-10-09 03:32:00
10:53 PM,69.8,62.2,77,30.12,10.0,NNE,5.8,-,N/A,,Mostly Cloudy,30,2011-10-09 03:53:00
11:13 PM,69.8,62.2,77,30.12,10.0,NE,3.5,-,N/A,,Mostly Cloudy,50,2011-10-09 04:13:00
11:32 PM,69.8,62.2,77,30.12,10.0,ENE,4.6,-,N/A,,Mostly Cloudy,60,2011-10-09 04:32:00
11:53 PM,69.8,62.6,78,30.13,10.0,Calm,Calm,-,N/A,,Overcast,0,2011-10-09 04:53:00